www.pogodaiklimat.ru

Погода и климат >> Архив погоды >> Алжир >> In-Salah


ПОГОДА в In-Salah

АРХИВ ПОГОДЫ в In-Salah

Время (UTC), дата Ветер
(напр.,м/с)
 
Видим.   Явления Облачность Т
(С)
Тd
(С)
f
(%)
Тe
(С)
Тes
(С)
Комфортность P
(гПа)
Po
(гПа)
Тmin
(С)
Tmax
(С)
R
(мм)
R24
(мм)
S
(см)
18 16.06 З 6 10 км 5/0
[Ac trans Ci sp]
+42.4 1007.7 1008.0 +44.0
21 16.06 З 5 10 км 4/0
[Ac trans Ci sp]
+35.4 -1.8 9 +31 +31 жарко 1009.1 1009.0
00 17.06 СЗ 5 10 км 4/0
[Ac trans Ci sp]
+32.5 -2.2 11 +29 +29 жарко 1009.5 1010.0
03 17.06 СЗ 5 10 км 4/0
[Ac trans Ci sp]
+30.5 -2.6 12 +27 +27 жарко 1009.0 1009.0
06 17.06 В 4 10 км ясно +29.4 -2.3 13 +26 +27 жарко 1010.5 1011.0 +28.5
09 17.06 С 6 10 км ясно +38.7 +34 +39 очень
жарко
1011.5 1012.0
12 17.06 З 4 10 км ясно +42.2 +37 +52 опасность
солнечного
удара
1011.3 1011.0
15 17.06 З 5 10 км ясно +44.4 +39 +45 очень
жарко
1009.4 1009.0
18 17.06 З 8 10 км ясно +43.2 +38 +38 очень
жарко
1009.0 1009.0 +45.0
21 17.06 СЗ 5 10 км ясно +36.4 +31 +31 жарко 1011.2 1011.0
00 18.06 СЗ 5 10 км ясно +33.9 -1.5 10 +30 +30 жарко 1011.2 1011.0
03 18.06 СЗ 2 10 км ясно +30.2 +0.7 15 +27 +27 жарко 1010.6 1011.0
06 18.06 СЗ 3 10 км ясно +27.9 +0.4 17 +26 +27 жарко 1011.7 1012.0 +27.8
09 18.06 С 7 9000 м ясно +39.5 +5.6 13 +37 +40 очень
жарко
1012.3 1012.0
12 18.06 СЗ 7 9000 м ясно +43.5 +6.3 11 +41 +48 опасность
перегрева
1011.0 1011.0
15 18.06 С 9 9000 м пыльный позёмок ясно +45.6 +5.3 9 +43 +44 опасность
перегрева
1008.2 1008.0
18 18.06 СЗ 8 9000 м 3/0
[Ci sp]
+43.7 1007.8 1008.0 +45.8
21 18.06 С 4 9000 м 3/0
[Ci sp]
+36.2 +31 +31 жарко 1008.9 1009.0
00 19.06 СЗ 3 9000 м 3/0
[Ci sp]
+33.1 -3.0 10 +29 +29 жарко 1009.0 1009.0
03 19.06 СВ 1 9000 м 3/0
[Ci sp]
+29.5 -3.0 12 +26 +26 жарко 1008.9 1009.0
06 19.06 В 1 9000 м ясно +27.8 -0.5 16 +25 +27 комфорт 1009.6 1010.0 +26.5
09 19.06 В 5 10 км ясно +36.9 +2.9 12 +34 +41 очень
жарко
1009.9 1010.0
12 19.06 СЗ 7 10 км 3/0
[Ci sp]
+42.5 +37 +43 очень
жарко
1008.4 1008.0
15 19.06 СЗ 10 8000 м пыльный позёмок 5/0
[Ci sp]
+44.4 +4.4 9 +41 +42 опасность
перегрева
1005.5 1006.0
18 19.06 СЗ 10 8000 м пыльный позёмок 4/0
[Ci sp]
+42.4 +2.9 9 +39 +39 очень
жарко
1005.1 1005.0 +44.6
21 19.06 СЗ 6 8000 м 5/0
[Ci sp]
+38.5 +33 +33 жарко 1006.2 1006.0
00 20.06 СВ 8 8000 м 5/0
[Ci sp]
+35.1 -1.2 10 +31 +31 жарко 1007.1 1007.0
03 20.06 СВ 6 9000 м 4/0
[Ci sp]
+31.8 -0.8 12 +28 +28 жарко 1007.4 1007.0
06 20.06 СВ 9 10 км 3/0
[Ci sp]
+30.4 +0.4 14 +27 +28 жарко 1009.0 1009.0 +30.0
09 20.06 В 10 9000 м пыльный позёмок ясно +35.0 +6.0 17 +33 +33 жарко 1009.5 1010.0
12 20.06 СВ 8 15 км ясно +39.1 +6.6 14 +37 +41 очень
жарко
1009.4 1009.0
15 20.06 С 6 15 км ясно +41.0 1007.4 1007.0
18 20.06 СВ 9 15 км 3/0
[Ci sp]
+39.1 1008.0 1008.0 +41.5
21 20.06 В 5 10 км 3/0
[Ci sp]
+34.8 -0.3 11 +31 +31 жарко 1009.8 1010.0
00 21.06 В 6 10 км 3/0
[Ci sp]
+29.8 +0.6 15 +27 +27 жарко 1010.4 1010.0
03 21.06 В 7 10 км 3/0
[Ci sp]
+28.5 +0.7 17 +26 +26 жарко 1010.4 1010.0
06 21.06 СВ 8 10 км ясно +27.2 +2.3 20 +26 +26 жарко 1012.0 1012.0 +26.8
09 21.06 В 12 8000 м пыльный позёмок ясно +34.2 +1.6 13 +31 +31 жарко 1011.5 1012.0
12 21.06 СВ 11 8000 м пыльный позёмок ясно +38.2 +0.8 10 +35 +35 очень
жарко
1010.6 1011.0
15 21.06 В 7 10 км 1/1 1500 м
[Cu hum]
+40.0 +35 +38 очень
жарко
1009.4 1009.0
18 21.06 В 5 10 км 3/3 1500 м
[Cu med, cong]
+39.2 +34 +34 очень
жарко
1008.8 1009.0 +40.6
21 21.06 В 5 10 км 3/0
[Ac trans Ci sp]
+32.1 +0.8 14 +29 +29 жарко 1010.3 1010.0
00 22.06 В 6 10 км 3/0
[Ci sp]
+29.7 -1.0 14 +27 +27 жарко 1009.7 1010.0
03 22.06 В 6 10 км 3/0
[Ci sp]
+27.7 -1.7 15 +25 +25 комфорт 1008.8 1009.0
06 22.06 В 9 10 км ясно +26.9 +0.9 18 +25 +25 комфорт 1009.9 1010.0 +25.9
09 22.06 В 12 7000 м пыльный позёмок ясно +35.5 +3.6 14 +33 +33 жарко 1010.9 1011.0
12 22.06 В 5 8000 м ясно +41.5 +2.6 9 +38 +49 очень
жарко
1009.6 1010.0
15 22.06 В 6 8000 м ясно +42.7 +3.6 9 +39 +44 очень
жарко
1007.5 1008.0
18 22.06 В 6 8000 м ясно +41.4 +4.2 10 +38 +38 очень
жарко
1007.3 1007.0 +44.3
21 22.06 В 8 8000 м ясно +36.6 -0.6 10 +33 +33 жарко 1007.6 1008.0
00 23.06 В 8 8000 м ясно +32.3 +0.1 13 +29 +29 жарко 1008.3 1008.0
03 23.06 В 6 8000 м ясно +29.0 +1.5 17 +27 +27 жарко 1008.4 1008.0
06 23.06 В 8 10 км ясно +29.4 +1.6 17 +27 +27 жарко 1009.4 1009.0 +27.6
09 23.06 В 13 2500 м пыльный позёмок ясно +38.4 +3.1 11 +35 +35 очень
жарко
1009.8 1010.0
12 23.06 В 11 7000 м пыльный позёмок ясно +42.9 +38 +38 очень
жарко
1008.7 1009.0
15 23.06 В 8 10 км ясно +44.4 +39 +41 очень
жарко
1007.1 1007.0

 

Местоположение метеостанции In-Salah (Алжир): широта 27.23 долгота 2.50 высота над уровнем моря 269 м.

В архиве по умолчанию представлена погода в In-Salah за последнюю неделю. Архивные данные за месяц целиком и за предыдущие месяцы, начиная с января 2011 года, Вы можете получить, выбрав интересующий диапазон дат из раскрывающегося списка и нажав кнопку "Ввод!".


*Определитесь, кто Вы:
робот инопланетянин человек

Внимание! Время в таблицах - всемирное. Для получения местного времени необходимо прибавить поправку, которая в In-Salah равна 1 ч.

Смотрите также архив погоды в соседних городах и на ближайших метеорологических станциях:

Погода в Arak (Алжир) (254 км)
Погода в Adrar (Алжир) (274 км)
Погода в Timimoun (Алжир) (313 км)
Погода в Abankor (Алжир) (326 км)
Погода в Moulay Lachen (Алжир) (350 км)
Погода в El-Golea (Алжир) (373 км)
Погода в In Ziza (Алжир) (418 км)
Погода в Mertouek (Алжир) (455 км)
Погода в Rhourde-Nouss (Алжир) (495 км)
Погода в Tin Fouye (Алжир) (514 км)

Пояснения к столбцам:

Ветер - указаны скорость ветра в м/с - средняя за 10 мин, порывы в срок и между сроками (в фигурных скобках) и направление, откуда дует ветер: С - северный, СВ - северо-восточный, В - восточный, ЮВ - юго-восточный, Ю - южный, ЮЗ - юго-западный, З - западный, СЗ - северо-западный.
Видимость - горизонтальная дальность видимости в метрах или километрах. При видимости от 1 до 10 км при отсутствии осадков обычно наблюдается дымка, при ухудшении видимости до 1 км и менее - туман. В сухую погоду видимость может ухудшаться дымом, пылью или мглою.
Явления - указаны атмосферные явления, наблюдавшиеся в срок или в последний час перед сроком; фигурными скобками обозначены явления, наблюдавшиеся между сроками (за 1-3 часа до срока); квадратными скобками обозначены град или гололедные отложения с указанием их диаметра в мм.
Облачность - указаны через наклонную черту общая и нижняя облачность в баллах и высота нижней границы облаков в метрах; квадратными скобками обозначены формы облаков: Ci - перистые, Cs - перисто-слоистые, Cc - перисто-кучевые, Ac - высококучевые, As - высокослоистые, Sc - слоисто-кучевые, Ns - слоисто-дождевые, Cu - кучевые, Cb - кучево-дождевые. Подробнее классификацию облаков см. в Атласе облаков (PDF).
T - Температура воздуха - температура, измеренная на высоте 2 м над землей.
Td - Температура точки росы - температура, при понижении до которой содержащийся в воздухе водяной пар достигнет насыщения.
f - Относительная влажность воздуха - влажноcть воздуха, измеренная на высоте 2 м над землей.
Te - Эффективная температура - температура, которую ощущает одетый по сезону человек в тени. Характеристика душности погоды. При расчете учитывается влияние влажности воздуха и скорости ветра на теплоощущения человека.
Tes - Эффективная температура на солнце - температура, которую ощущает человек, с поправкой на солнечный нагрев. Характеристика знойности погоды. Зависит от высоты солнца над горизонтом, облачности и скорости ветра. Ночью, в пасмурную погоду, а также при ветре 12 м/с и более поправка равна нулю.
P - Атмосферное давление - приведенное к уровню моря атмосферное давление.
Po - Атмосферное давление - измеренное на уровне метеостанции атмосферное давление.
Tmin - Минимальная температура - минимум температуры воздуха на высоте 2 м над землей.
Tmax - Максимальная температура - максимум температуры воздуха на высоте 2 м над землей.
R - Количество осадков - Количество выпавших осадков за период времени, мм. При наведении курсора мыши на число - период времени, за который выпало указанное количество осадков.
R24 - Количество осадков - Количество выпавших осадков за 24 часа, мм.
S - Снежный покров - Высота снежного покрова, см. При наведении курсора мыши на число - состояние снежного покрова и степень покрытия местности в баллах.